Kalamata, Greece

6:39 AM EEST on August 21, 2017 (GMT +0300)
Kalamata Air Base

Weather History for LGKL - June, 2013

Change the Weather History Date:

Friday, June 21, 2013

  Actual Average Record
Temperature  
Mean Temperature 82 °F -  
Max Temperature 96 °F 87 °F 96 °F (2012)
Min Temperature 69 °F 64 °F 57 °F (2000)
Cooling Degree Days 18    
Growing Degree Days 32 (Base 50)    
Moisture  
Dew Point 64 °F    
Average Humidity 56    
Maximum Humidity 89    
Minimum Humidity 27    
Precipitation  
Precipitation 0.00 in 0.01 in - ()
Sea Level Pressure  
Sea Level Pressure 29.89 in    
Wind  
Wind Speed 4 mph ()    
Max Wind Speed 14 mph    
Max Gust Speed 25 mph    
Visibility 6.2 miles    
Events      
Averages and records for this station are not official NWS values.
T = Trace of Precipitation, MM = Missing Value Source: Averaged Metar Reports

Daily Weather History Graph

Daily Weather History Graph

Search for Another Location

Airport or City:

Trip Planner

Search our weather history database for the weather conditions in past years. The results will help you decide how hot, cold, wet, or windy it might be!

Date:

Astronomy

Jun. 21, 2013 Rise Set
Actual Time 6:12 AM EEST 8:55 PM EEST
Civil Twilight 5:41 AM EEST 9:26 PM EEST
Nautical Twilight 5:02 AM EEST 10:04 PM EEST
Astronomical Twilight 4:19 AM EEST 10:48 PM EEST
Moon 6:46 PM EEST 4:09 AM EEST
Length of Visible Light 15h 44m
Length of Day
14h 42m
Waxing Gibbous, 93% of the Moon is Illuminated
Jun 21
Waxing Gibbous
Jun 23
Full
Jun 30
Last Quarter
Jul 8
New
Jul 16
First Quarter

Hourly Weather History & Observations

Time (EEST) Temp. Heat Index Dew Point Humidity Pressure Visibility Wind Dir Wind Speed Gust Speed Precip Events Conditions
1:50 AM 69.8 °F - 62.6 °F 78% 29.92 in - Calm Calm - N/A   Clear
2:50 AM 69.8 °F - 62.6 °F 78% 29.92 in - Calm Calm - N/A   Clear
4:50 AM 71.6 °F - 60.8 °F 69% 29.89 in - Calm Calm - N/A   Clear
5:50 AM 71.6 °F - 59.0 °F 64% 29.89 in - Calm Calm - N/A   Clear
6:20 AM 69.8 °F - 59.0 °F 68% 29.89 in 6.2 mi Calm Calm - N/A   Partly Cloudy
6:50 AM 73.4 °F - 59.0 °F 61% 29.89 in 6.2 mi Calm Calm - N/A   Partly Cloudy
7:20 AM 75.2 °F - 60.8 °F 61% 29.89 in 6.2 mi Calm Calm - N/A   Partly Cloudy
7:50 AM 80.6 °F 81.5 °F 60.8 °F 51% 29.89 in 6.2 mi North 6.9 mph - N/A   Partly Cloudy
8:20 AM 82.4 °F 82.5 °F 59.0 °F 45% 29.92 in 6.2 mi North 4.6 mph - N/A   Partly Cloudy
8:50 AM 84.2 °F 85.0 °F 62.6 °F 48% 29.92 in 6.2 mi North 4.6 mph - N/A   Partly Cloudy
9:20 AM 86.0 °F 86.6 °F 62.6 °F 45% 29.89 in 6.2 mi NNW 6.9 mph - N/A   Partly Cloudy
9:50 AM 87.8 °F 88.5 °F 62.6 °F 43% 29.89 in 6.2 mi NNW 6.9 mph - N/A   Partly Cloudy
10:20 AM 91.4 °F 91.4 °F 60.8 °F 36% 29.89 in 6.2 mi NNE 13.8 mph 25.3 mph N/A   Partly Cloudy
10:50 AM 93.2 °F 92.6 °F 59.0 °F 32% 29.89 in 6.2 mi NE 10.4 mph - N/A   Partly Cloudy
11:20 AM 93.2 °F 91.9 °F 57.2 °F 30% 29.89 in 6.2 mi NE 11.5 mph 23.0 mph N/A   Partly Cloudy
11:50 AM 95.0 °F 93.7 °F 57.2 °F 28% 29.89 in 6.2 mi NE 10.4 mph - N/A   Partly Cloudy
12:20 PM 96.8 °F 95.8 °F 57.2 °F 27% 29.89 in 6.2 mi NNE 10.4 mph - N/A   Partly Cloudy
12:50 PM 96.8 °F 95.8 °F 57.2 °F 27% 29.89 in 6.2 mi NE 6.9 mph - N/A   Partly Cloudy
1:20 PM 93.2 °F 93.3 °F 60.8 °F 34% 29.89 in 6.2 mi South 10.4 mph - N/A   Partly Cloudy
1:50 PM 89.6 °F 90.1 °F 62.6 °F 40% 29.86 in 6.2 mi SSW 11.5 mph - N/A   Partly Cloudy
2:20 PM 89.6 °F 90.1 °F 62.6 °F 40% 29.86 in 6.2 mi SSW 11.5 mph - N/A   Partly Cloudy
2:50 PM 89.6 °F 90.1 °F 62.6 °F 40% 29.86 in 6.2 mi SSW 10.4 mph - N/A   Partly Cloudy
3:20 PM 89.6 °F 91.1 °F 64.4 °F 43% 29.86 in 6.2 mi SSW 13.8 mph - N/A   Partly Cloudy
3:50 PM 86.0 °F 89.4 °F 68.0 °F 55% 29.86 in 6.2 mi South 13.8 mph - N/A   Partly Cloudy
4:20 PM 86.0 °F 89.4 °F 68.0 °F 55% 29.86 in 6.2 mi SSW 9.2 mph - N/A   Partly Cloudy
4:50 PM 84.2 °F 88.4 °F 69.8 °F 62% 29.89 in 6.2 mi SW 9.2 mph - N/A   Partly Cloudy
5:20 PM 84.2 °F 88.4 °F 69.8 °F 62% 29.89 in 6.2 mi SW 8.1 mph - N/A   Partly Cloudy
5:50 PM 82.4 °F 86.3 °F 69.8 °F 66% 29.89 in 6.2 mi SSW 8.1 mph - N/A   Partly Cloudy
6:20 PM 82.4 °F 86.3 °F 69.8 °F 66% 29.86 in 6.2 mi SSW 9.2 mph - N/A   Partly Cloudy
6:50 PM 82.4 °F 86.3 °F 69.8 °F 66% 29.89 in 6.2 mi SW 6.9 mph - N/A   Partly Cloudy
7:20 PM 80.6 °F 83.9 °F 69.8 °F 70% 29.89 in 6.2 mi South 5.8 mph - N/A   Partly Cloudy
7:50 PM 80.6 °F 83.9 °F 69.8 °F 70% 29.89 in 6.2 mi South 4.6 mph - N/A   Partly Cloudy
8:20 PM 78.8 °F - 71.6 °F 78% 29.89 in - South 4.6 mph - N/A   Clear
8:50 PM 77.0 °F - 71.6 °F 83% 29.89 in - Calm Calm - N/A   Clear
9:50 PM 75.2 °F - 71.6 °F 89% 29.92 in - Calm Calm - N/A   Clear
10:50 PM 73.4 °F - 69.8 °F 88% 29.92 in - Calm Calm - N/A   Clear
11:50 PM 71.6 °F - 68.0 °F 88% 29.92 in - Calm Calm - N/A   Clear